Radiation Dose at Monitoring Post of Fukushima Daini Nuclear Power Station
Date,Time,MP-1(microSv/h),MP-2(microSv/h),MP-3(microSv/h),MP-4(microSv/h),MP-5(microSv/h),MP-6(microSv/h),MP-7(microSv/h),Wind Direction,Wind Velocity(m/s),Rain
2016/02/17,00:00,0.460,0.268,0.482,0.434,0.397,0.220,0.191,south-southwest,1.9,No
2016/02/17,00:10,0.460,0.266,0.482,0.433,0.395,0.220,0.192,-,CALM,No
2016/02/17,00:20,0.459,0.267,0.482,0.434,0.397,0.219,0.193,north-northeast,1.2,No
2016/02/17,00:30,0.459,0.267,0.479,0.435,0.399,0.219,0.193,north-northeast,2.2,No
2016/02/17,00:40,0.460,0.266,0.481,0.434,0.398,0.220,0.191,northwest,0.6,No
2016/02/17,00:50,0.460,0.267,0.482,0.435,0.398,0.220,0.193,east,0.6,No
2016/02/17,01:00,0.459,0.267,0.480,0.433,0.396,0.219,0.193,northwest,1.6,No
2016/02/17,01:10,0.458,0.267,0.481,0.435,0.398,0.219,0.193,west-northwest,3.0,No
2016/02/17,01:20,0.459,0.267,0.481,0.435,0.398,0.220,0.192,west-northwest,3.8,No
2016/02/17,01:30,0.459,0.267,0.482,0.433,0.400,0.219,0.192,west-northwest,5.2,No
2016/02/17,01:40,0.459,0.267,0.480,0.432,0.396,0.220,0.191,west,4.6,No
2016/02/17,01:50,0.460,0.267,0.481,0.433,0.398,0.219,0.192,west,5.7,No
2016/02/17,02:00,0.458,0.268,0.480,0.432,0.397,0.218,0.192,west,4.6,No
2016/02/17,02:10,0.456,0.268,0.482,0.434,0.398,0.219,0.192,west,7.8,No
2016/02/17,02:20,0.458,0.268,0.482,0.435,0.397,0.219,0.192,west,9.8,No
2016/02/17,02:30,0.459,0.267,0.480,0.434,0.398,0.219,0.191,west,8.9,No
2016/02/17,02:40,0.459,0.267,0.480,0.434,0.397,0.219,0.192,west,8.9,No
2016/02/17,02:50,0.458,0.267,0.481,0.434,0.396,0.219,0.192,west,6.8,No
2016/02/17,03:00,0.459,0.266,0.481,0.433,0.398,0.219,0.192,west,5.9,No
2016/02/17,03:10,0.458,0.265,0.480,0.433,0.397,0.219,0.192,west,5.8,No
2016/02/17,03:20,0.459,0.267,0.480,0.433,0.397,0.220,0.192,west,7.1,No
2016/02/17,03:30,0.457,0.267,0.481,0.434,0.397,0.219,0.191,west,5.5,No
2016/02/17,03:40,0.456,0.267,0.481,0.434,0.400,0.219,0.192,west,7.4,No
2016/02/17,03:50,0.458,0.267,0.479,0.433,0.398,0.218,0.192,west-northwest,8.5,No
2016/02/17,04:00,0.457,0.266,0.480,0.433,0.396,0.219,0.192,west-northwest,8.4,No
2016/02/17,04:10,0.458,0.266,0.481,0.433,0.395,0.219,0.193,west,8.7,No
2016/02/17,04:20,0.458,0.265,0.481,0.434,0.397,0.219,0.192,west,7.1,No
2016/02/17,04:30,0.457,0.268,0.481,0.434,0.399,0.219,0.193,west,5.2,No
2016/02/17,04:40,0.460,0.267,0.480,0.432,0.396,0.219,0.192,west-northwest,4.1,No
2016/02/17,04:50,0.458,0.267,0.480,0.432,0.396,0.220,0.191,west,2.7,No
2016/02/17,05:00,0.456,0.267,0.481,0.435,0.395,0.219,0.193,west-northwest,1.9,No
2016/02/17,05:10,0.457,0.266,0.481,0.433,0.398,0.220,0.191,west,4.1,No
2016/02/17,05:20,0.458,0.266,0.481,0.432,0.397,0.220,0.192,west-southwest,2.5,No
2016/02/17,05:30,0.459,0.268,0.481,0.432,0.397,0.220,0.191,west-northwest,1.2,No
2016/02/17,05:40,0.458,0.266,0.481,0.434,0.397,0.219,0.192,west,1.5,No
2016/02/17,05:50,0.455,0.266,0.481,0.433,0.396,0.218,0.191,west-northwest,2.0,No
2016/02/17,06:00,0.459,0.266,0.479,0.433,0.397,0.218,0.191,west,1.2,No
2016/02/17,06:10,0.459,0.266,0.481,0.432,0.396,0.219,0.192,west-northwest,1.3,No
2016/02/17,06:20,0.459,0.266,0.481,0.432,0.396,0.218,0.191,west,3.3,No
2016/02/17,06:30,0.458,0.266,0.482,0.433,0.397,0.219,0.192,west,4.9,No
2016/02/17,06:40,0.457,0.266,0.480,0.435,0.396,0.219,0.192,west-northwest,2.6,No
2016/02/17,06:50,0.460,0.266,0.479,0.432,0.397,0.218,0.191,northwest,1.0,No
2016/02/17,07:00,0.459,0.267,0.480,0.435,0.397,0.219,0.191,west-northwest,2.1,No
2016/02/17,07:10,0.459,0.266,0.482,0.432,0.396,0.219,0.192,northwest,3.2,No
2016/02/17,07:20,0.459,0.266,0.482,0.434,0.396,0.219,0.191,northwest,4.0,No
2016/02/17,07:30,0.457,0.268,0.478,0.433,0.396,0.220,0.191,west-northwest,4.0,No
2016/02/17,07:40,0.457,0.266,0.480,0.433,0.397,0.218,0.191,west-northwest,5.9,No
2016/02/17,07:50,0.457,0.267,0.483,0.432,0.397,0.218,0.190,west,6.0,No
2016/02/17,08:00,0.460,0.268,0.481,0.432,0.396,0.219,0.191,west-northwest,5.8,No
2016/02/17,08:10,0.458,0.267,0.481,0.432,0.396,0.219,0.192,west-northwest,6.1,No
2016/02/17,08:20,0.457,0.267,0.479,0.433,0.398,0.219,0.191,west,2.4,No
2016/02/17,08:30,0.458,0.268,0.481,0.431,0.398,0.220,0.192,south-southeast,3.6,No
2016/02/17,08:40,0.458,0.268,0.483,0.432,0.396,0.219,0.191,south-southwest,4.9,No
2016/02/17,08:50,0.458,0.267,0.481,0.431,0.398,0.219,0.191,southwest,5.9,No
2016/02/17,09:00,0.458,0.264,0.481,0.433,0.398,0.218,0.190,southwest,4.7,No
2016/02/17,09:10,0.458,0.265,0.481,0.430,0.397,0.219,0.190,southwest,4.2,No
2016/02/17,09:20,0.459,0.265,0.479,0.433,0.397,0.219,0.191,south,4.2,No
2016/02/17,09:30,0.459,0.265,0.481,0.431,0.397,0.218,0.191,south-southeast,6.6,No
2016/02/17,09:40,0.458,0.265,0.481,0.433,0.398,0.219,0.191,south,5.9,No
2016/02/17,09:50,0.456,0.265,0.479,0.435,0.397,0.220,0.191,south-southeast,5.4,No
2016/02/17,10:00,0.459,0.267,0.479,0.432,0.399,0.218,0.191,south,4.9,No
2016/02/17,10:10,0.455,0.265,0.481,0.434,0.396,0.220,0.192,south-southwest,4.0,No
2016/02/17,10:20,0.459,0.265,0.480,0.430,0.399,0.219,0.191,south-southwest,3.2,No
2016/02/17,10:30,0.455,0.265,0.481,0.432,0.396,0.220,0.192,south-southwest,3.6,No
2016/02/17,10:40,0.460,0.266,0.482,0.431,0.400,0.220,0.192,south-southeast,2.2,No
2016/02/17,10:50,0.456,0.266,0.478,0.433,0.396,0.219,0.194,south-southwest,2.7,No
2016/02/17,11:00,0.459,0.266,0.479,0.431,0.398,0.220,0.192,west-northwest,4.1,No
2016/02/17,11:10,0.456,0.266,0.481,0.434,0.399,0.219,0.192,north,1.8,No
2016/02/17,11:20,0.462,0.267,0.478,0.432,0.400,0.220,0.192,northwest,4.3,No
2016/02/17,11:30,0.457,0.267,0.482,0.434,0.399,0.220,0.192,west-northwest,7.6,No
2016/02/17,11:40,0.460,0.266,0.478,0.431,0.398,0.220,0.192,northwest,10.0,No
2016/02/17,11:50,0.460,0.266,0.483,0.435,0.400,0.220,0.191,northwest,8.2,No
2016/02/17,12:00,0.460,0.267,0.480,0.432,0.396,0.220,0.193,west-northwest,8.4,No
2016/02/17,12:10,0.461,0.266,0.481,0.435,0.402,0.219,0.191,northwest,12.0,No
2016/02/17,12:20,0.459,0.267,0.483,0.430,0.396,0.220,0.192,north-northwest,10.0,No
2016/02/17,12:30,0.462,0.266,0.478,0.435,0.400,0.219,0.190,north,11.7,No
2016/02/17,12:40,0.462,0.268,0.484,0.431,0.399,0.219,0.192,north-northwest,8.1,No
2016/02/17,12:50,0.461,0.268,0.480,0.436,0.400,0.219,0.192,north,11.5,No
2016/02/17,13:00,0.463,0.266,0.482,0.432,0.399,0.218,0.192,north-northwest,8.7,No
2016/02/17,13:10,0.461,0.268,0.481,0.434,0.399,0.220,0.193,northwest,8.1,No
2016/02/17,13:20,0.462,0.268,0.481,0.434,0.402,0.219,0.192,northwest,7.6,No
2016/02/17,13:30,0.463,0.267,0.482,0.435,0.398,0.219,0.192,west-northwest,8.1,No
2016/02/17,13:40,0.461,0.268,0.479,0.433,0.401,0.219,0.192,west-northwest,7.7,No
2016/02/17,13:50,0.462,0.268,0.482,0.435,0.399,0.221,0.191,north-northwest,5.8,No
2016/02/17,14:00,0.462,0.266,0.478,0.433,0.400,0.218,0.192,north-northwest,4.4,No
2016/02/17,14:10,0.460,0.267,0.484,0.434,0.398,0.219,0.192,north-northeast,6.3,No
2016/02/17,14:20,0.462,0.265,0.480,0.431,0.399,0.219,0.192,northwest,5.4,No
2016/02/17,14:30,0.460,0.267,0.483,0.435,0.401,0.219,0.191,northwest,8.2,No
2016/02/17,14:40,0.460,0.267,0.479,0.436,0.398,0.220,0.192,west-northwest,11.5,No
2016/02/17,14:50,0.464,0.266,0.482,0.435,0.403,0.220,0.193,west-northwest,11.7,No
2016/02/17,15:00,0.461,0.268,0.484,0.437,0.401,0.219,0.193,west-northwest,10.6,No
2016/02/17,15:10,0.464,0.267,0.485,0.438,0.399,0.220,0.194,west-northwest,10.7,No
2016/02/17,15:20,0.463,0.268,0.482,0.435,0.402,0.219,0.195,northwest,9.6,No
2016/02/17,15:30,0.461,0.270,0.485,0.437,0.398,0.220,0.193,north-northwest,11.5,No
2016/02/17,15:40,0.463,0.269,0.484,0.437,0.398,0.219,0.193,north-northwest,11.5,No
2016/02/17,15:50,0.465,0.268,0.483,0.437,0.400,0.219,0.193,north-northwest,12.9,No
2016/02/17,16:00,0.462,0.268,0.486,0.435,0.401,0.220,0.194,north,10.0,No
2016/02/17,16:10,0.462,0.268,0.485,0.435,0.399,0.219,0.193,north-northwest,10.6,No
2016/02/17,16:20,0.464,0.269,0.483,0.434,0.400,0.220,0.194,north,9.6,No
2016/02/17,16:30,0.462,0.268,0.483,0.435,0.401,0.219,0.193,north,10.7,No
2016/02/17,16:40,0.461,0.268,0.485,0.436,0.399,0.220,0.194,north,12.0,No
2016/02/17,16:50,0.462,0.266,0.484,0.435,0.399,0.220,0.193,north,9.6,No
2016/02/17,17:00,0.463,0.269,0.482,0.433,0.400,0.220,0.193,north,8.8,No
2016/02/17,17:10,0.461,0.268,0.483,0.435,0.401,0.220,0.194,north-northwest,7.8,No
2016/02/17,17:20,0.461,0.268,0.483,0.436,0.400,0.219,0.193,north-northwest,6.8,No
2016/02/17,17:30,0.463,0.268,0.483,0.435,0.399,0.219,0.193,north-northwest,8.1,No
2016/02/17,17:40,0.462,0.267,0.482,0.433,0.399,0.219,0.193,north-northwest,8.8,No
2016/02/17,17:50,0.461,0.267,0.483,0.433,0.401,0.220,0.193,north-northwest,7.0,No
2016/02/17,18:00,0.461,0.268,0.485,0.438,0.399,0.219,0.192,northwest,7.3,No
2016/02/17,18:10,0.460,0.268,0.483,0.434,0.398,0.219,0.192,northwest,6.8,No
2016/02/17,18:20,0.461,0.268,0.484,0.435,0.398,0.220,0.193,west-northwest,6.1,No
2016/02/17,18:30,0.461,0.268,0.483,0.434,0.399,0.220,0.191,northwest,3.8,No
2016/02/17,18:40,0.459,0.267,0.484,0.434,0.400,0.219,0.192,west-northwest,6.4,No
2016/02/17,18:50,0.460,0.268,0.482,0.434,0.398,0.221,0.192,west-northwest,9.2,No
2016/02/17,19:00,0.461,0.267,0.482,0.435,0.399,0.220,0.192,west,9.3,No
2016/02/17,19:10,0.461,0.267,0.483,0.434,0.399,0.219,0.193,west-northwest,7.8,No
2016/02/17,19:20,0.460,0.266,0.484,0.435,0.400,0.220,0.192,west-northwest,6.8,No
2016/02/17,19:30,0.459,0.267,0.483,0.434,0.399,0.219,0.192,northwest,5.8,No
2016/02/17,19:40,0.461,0.268,0.482,0.434,0.399,0.219,0.192,north-northwest,2.4,No
2016/02/17,19:50,0.459,0.267,0.481,0.434,0.398,0.219,0.192,west-northwest,3.7,No
2016/02/17,20:00,0.460,0.267,0.483,0.434,0.399,0.220,0.192,west-northwest,3.9,No
2016/02/17,20:10,0.460,0.268,0.484,0.436,0.397,0.220,0.192,west-northwest,3.6,No
2016/02/17,20:20,0.460,0.267,0.481,0.435,0.399,0.220,0.192,west,2.4,No
2016/02/17,20:30,0.460,0.268,0.482,0.434,0.396,0.220,0.191,west-southwest,1.4,No
2016/02/17,20:40,0.461,0.267,0.483,0.434,0.398,0.219,0.192,west-southwest,2.7,No
2016/02/17,20:50,0.460,0.267,0.482,0.436,0.397,0.220,0.193,west-southwest,3.7,No
2016/02/17,21:00,0.460,0.268,0.483,0.435,0.398,0.219,0.192,west,3.2,No
2016/02/17,21:10,0.460,0.267,0.481,0.435,0.399,0.220,0.192,west,4.5,No
2016/02/17,21:20,0.459,0.267,0.481,0.434,0.398,0.219,0.192,west,3.7,No
2016/02/17,21:30,0.461,0.267,0.481,0.435,0.399,0.219,0.193,west,2.7,No
2016/02/17,21:40,0.460,0.268,0.482,0.435,0.398,0.220,0.192,west-northwest,1.9,No
2016/02/17,21:50,0.461,0.267,0.482,0.434,0.398,0.220,0.193,west,2.1,No
2016/02/17,22:00,0.460,0.267,0.482,0.434,0.399,0.219,0.193,west-northwest,2.0,No
2016/02/17,22:10,0.460,0.267,0.482,0.435,0.400,0.220,0.191,west-northwest,3.7,No
2016/02/17,22:20,0.459,0.268,0.484,0.433,0.399,0.219,0.193,northwest,3.5,No
2016/02/17,22:30,0.459,0.268,0.481,0.436,0.398,0.219,0.192,north,2.6,No
2016/02/17,22:40,0.461,0.267,0.483,0.434,0.398,0.219,0.193,north,5.3,No
2016/02/17,22:50,0.460,0.267,0.482,0.435,0.398,0.219,0.191,north,5.5,No
2016/02/17,23:00,0.460,0.267,0.482,0.435,0.399,0.219,0.193,north-northwest,5.3,No
2016/02/17,23:10,0.460,0.267,0.481,0.434,0.400,0.220,0.193,north-northwest,5.7,No
2016/02/17,23:20,0.460,0.267,0.482,0.436,0.400,0.220,0.193,north-northwest,6.1,No
2016/02/17,23:30,0.460,0.268,0.481,0.435,0.398,0.219,0.192,north-northwest,5.7,No
2016/02/17,23:40,0.461,0.266,0.484,0.435,0.396,0.220,0.194,north,5.4,No
2016/02/17,23:50,0.460,0.266,0.484,0.434,0.400,0.221,0.194,north,5.1,No
